{"data":{"norad_id":53405,"epoch":"2026-09-20T04:00:03.000096Z","epoch_age_seconds":104149,"freshness":"FRESH","line1":"1 53405U 22097T   26263.16670139  .00036641  00000+0  10912-2 0  9993","line2":"2 53405  53.1597 322.9257 0001242  93.8163 293.6677 15.34373559  5884","mean_motion":15.34373559,"eccentricity":0.0001242,"inclination_deg":53.1597,"raan_deg":322.9257,"arg_perigee_deg":93.8163,"mean_anomaly_deg":293.6677,"bstar":0.0010912,"rev_number":588,"period_min":93.849375307177,"perigee_km":461.93218744122,"apogee_km":463.63147167848,"semimajor_km":6840.9188295598,"source":"CELESTRAK","updated_at":"2026-09-20T09:00:40.226497Z"}}